Regional Weather Roundup
Issued by NWS

Home | Current Version | Previous Version | Graphics & Text | Print | Product List | Glossary On
Versions: 1 2 3 4 5 6 7 8 9 10 11 12 13 14 15 16 17 18 19 20 21 22 23 24 25 26 27 28 29 30 31 32 33 34 35 36 37 38 39 40 41 42 43 44 45 46 47 48 49 50
000
ASUS43 KMPX 300210
RWRMN
WEATHER ROUNDUP FOR MINNESOTA
NATIONAL WEATHER SERVICE TWIN CITIES/CHANHASSEN MN
900 PM CDT SAT APR 29 2017


NOTE: "FAIR" INDICATES FEW OR NO CLOUDS BELOW 12,000 FEET WITH NO
SIGNIFICANT WEATHER AND/OR OBSTRUCTIONS TO VISIBILITY. N/A MEANS
CURRENT SKY AND/OR WEATHER CONDITIONS ARE NOT AVAILABLE.

MNZ060>063-068>070-300300-
   Twin Cities Metro

CITY           SKY/WX    TMP DP  RH WIND       PRES   REMARKS
TWIN CITIES    CLOUDY    52  23  32 NE12      30.18R
ST PAUL        CLOUDY    52  25  35 NE12      30.20R
CRYSTAL        CLOUDY    51  16  24 NE10G20   30.18R
BLAINE         CLOUDY    52  19  28 NE13      30.18R
LAKEVILLE      CLOUDY    48  28  46 NE9       30.17R
EDEN PRAIRIE   MOCLDY    53  23  31 NE10      30.16S
SOUTH ST PAUL  CLOUDY    52  24  33 NE7       30.18R
LAKE ELMO      FAIR      50  28  43 NE12G18   30.19S
$$
MNZ001>005-007-008-013>017-022>024-027-028-300300-
   Northwest Minnesota

CITY           SKY/WX    TMP DP  RH WIND       PRES   REMARKS
BEMIDJI        CLEAR     50  23  34 NE3       30.22R
HALLOCK        CLEAR     48  28  46 SE9       30.21S
ROSEAU         CLEAR     46  36  66 E3        30.24R
WARROAD        CLEAR     43  30  61 CALM      30.25R
THIEF RVR FALL CLEAR     53  23  31 E5        30.23S
CROOKSTON      CLOUDY    54  32  43 CALM      30.23F
FOSSTON        PTCLDY    46  25  42 NE5       30.22F
DETROIT LAKES  CLOUDY    52  27  37 E5        30.22S
MOORHEAD       PTCLDY    52  25  35 NE5       30.22R
PARK RAPIDS    PTCLDY    51  20  29 E3        30.20F
MAHNOMEN       FAIR      47  31  54 N7        30.21F
$$
MNZ006-009>011-018-025>026-300300-
   North Central Minnesota

CITY           SKY/WX    TMP DP  RH WIND       PRES   REMARKS
BAUDETTE       CLEAR     47  18  31 NE8       30.23R
FLAG ISLAND    CLEAR     48   9  20 E3        30.23S
INTL FALLS     CLEAR     39  22  50 E3        30.25R
WASKISH        CLEAR     43  30  61 CALM      30.23S
BIG FORK       CLOUDY    48  18  29 E3        30.23F
LONGVILLE      CLOUDY    46  28  49 CALM      30.22R
GRAND RAPIDS   CLOUDY    48  21  34 SE8       30.26R
CRANE LAKE     CLEAR     34  18  51 CALM      30.28S
ORR            CLEAR     43  10  26 CALM      30.24R
COOK           CLOUDY    43  18  36 CALM      30.26R
WALKER         FAIR      49  24  38 CALM      30.21F
$$
MNZ012-019>021-037-300300-
   Northeast Minnesota

CITY           SKY/WX    TMP DP  RH WIND       PRES   REMARKS
DULUTH         PTCLDY    40  15  36 E13       30.26S
ELY            CLEAR     41  18  38 SE5       30.27R
HIBBING        PTCLDY    39  22  50 SE7       30.25R
EVELETH        CLOUDY    42  10  26 E3        30.27R
DULUTH HARBOR  PTCLDY    39  28  65 NE15      30.29R
TWO HARBORS    PTCLDY    41  19  42 NE5       30.27S
SILVER BAY     CLEAR     37  16  41 NE3       30.28S
GRAND MARAIS     N/A     33  24  69 CALM      30.32R
G MARAIS ARPRT CLOUDY    34  12  40 CALM      30.30R
$$
MNZ029>031-032-039>041-046>048-054>057-064-300300-
   West Central Minnesota

CITY           SKY/WX    TMP DP  RH WIND       PRES   REMARKS
FERGUS FALLS   CLEAR     50  25  37 E3        30.19R
WHEATON        PTCLDY    52  21  30 NE5       30.21S
MORRIS         CLOUDY    52  25  35 E8        30.18R
ALEXANDRIA     PTCLDY    50  22  33 NE9       30.19F
ELBOW LAKE     FAIR      50  29  44 E6        30.19R
WADENA         PTCLDY    48  25  40 NE6       30.20S
GLENWOOD       PTCLDY    46  27  46 NE6       30.19S
APPLETON       CLOUDY    52  25  35 E8        30.17S
BENSON         CLOUDY    52  16  24 E7        30.20S
ORTONVILLE     PTCLDY    50  27  40 NE6       30.18R
MADISON        CLOUDY    52  27  37 E7        30.18R
WILLMAR        FAIR      50  28  43 NE7       30.20R
$$
MNZ033>034-036-042>043-049>051-058-059-300300-
   Central Minnesota

CITY           SKY/WX    TMP DP  RH WIND       PRES   REMARKS
ST CLOUD       CLOUDY    49  15  25 E6        30.21R
SAUK CENTRE    FAIR      48  26  42 NE3       30.19F
PAYNESVILLE    CLOUDY    50  18  27 NE12      30.19S
AITKIN         CLOUDY    46  14  27 E10       30.22R
PINE RIVER     CLOUDY    52  25  35 NE5       30.24R
BRAINERD       MOCLDY    50  20  30 E8        30.21R
STAPLES        CLOUDY    50  19  29 CALM      30.20F
LONG PRAIRIE   FAIR      46  27  46 N5        30.19F
LITTLE FALLS   CLOUDY    48  21  34 CALM      30.21S
LITCHFIELD     CLOUDY    52  21  30 NE9       30.18S
BUFFALO        CLOUDY    50  24  36 NE15G21   30.19S
MAPLE LAKE     CLOUDY    50  25  38 NE14      30.19F
HUTCHINSON     CLEAR     50  28  41 NE9       30.19R
$$
MNZ037-044-045-052-053-300300-
   East Central Minnesota

CITY           SKY/WX    TMP DP  RH WIND       PRES   REMARKS
PRINCETON      CLOUDY    50  18  27 NE6       30.22R
MORA           CLOUDY    45  19  36 NE6       30.24R
CAMBRIDGE      CLOUDY    52  30  43 NE6       30.21R
RUSH CITY      CLOUDY    47  24  39 NE7       30.23R
MOOSE LAKE     CLOUDY    41  21  45 CALM      30.24R
HINCKLEY       FAIR      45  25  45 NE9       30.23R
CLOQUET        CLOUDY    41  12  30 E8        30.26R
MCGREGOR       CLOUDY    43  23  45 E12       30.25R
$$
MNZ071>073-080-081-089-090-097-098-300300-
   Southwest Minnesota

CITY           SKY/WX    TMP DP  RH WIND       PRES   REMARKS
MONTEVIDEO     CLOUDY    50  23  34 E13       30.18R
GRANITE FALLS  CLOUDY    51  29  43 NE7       30.20R
CANBY          CLOUDY    50  24  35 NE10      30.19R
MARSHALL       CLOUDY    50  25  37 E9        30.19R
REDWOOD FALLS  CLOUDY    51  22  31 NE6       30.18R
OLIVIA         CLOUDY    50  25  37 NE7       30.18R
PIPESTONE      CLOUDY    48  18  29 E10G16    30.15R
WINDOM         CLOUDY    48  23  37 NE12      30.15R
WORTHINGTON    CLOUDY    46  25  43 NE14      30.15R
JACKSON        CLOUDY    45  28  53 NE10      30.15R
TRACY          CLOUDY    48  28  46 NE7       30.17R
SLAYTON        CLOUDY    46  25  42 NE10G16   30.17R
$$
MNZ065>067-074>077-082>085-091>093-300300-
   South Central Minnesota

CITY           SKY/WX    TMP DP  RH WIND       PRES   REMARKS
MANKATO        CLOUDY    50  30  46 NE8       30.16R
NEW ULM        CLOUDY    50  21  32 NE7       30.18R
ST JAMES       CLOUDY    48  28  46 NE7       30.17R
FAIRMONT       CLOUDY    48  30  49 NE10      30.15R
GLENCOE        CLOUDY    51  27  39 NE5       30.16R
FARIBAULT      MOCLDY    48  30  49 NE5       30.16R
OWATONNA       CLOUDY    48  30  49 NE9       30.14S
WASECA         CLOUDY    50  32  50 NE13      30.16R
ALBERT LEA     CLOUDY    46  30  53 NE10G16   30.13R
$$
MNZ078>079-086>088-094>096-300300-
   Southeast Minnesota

CITY           SKY/WX    TMP DP  RH WIND       PRES   REMARKS
ROCHESTER      CLOUDY    46  31  55 E12       30.13R
RED WING       CLOUDY    52  23  32 E10       30.15S
STANTON        CLOUDY    51  30  45 NE10      30.15R
DODGE CENTER   CLOUDY    46  30  53 NE13      30.14R
WINONA         CLOUDY    48  30  49 E8        30.16S
AUSTIN         CLOUDY    46  30  53 NE10G17   30.11F
PRESTON        CLOUDY    45  28  52 E15G22    30.12S
$$
ABBREVIATIONS USED IN REMARKS
   TC - TEMPERATURES IN CELSIUS
  WCI - WIND CHILL INDEX
   HX - HEAT INDEX
  VSB - VISIBILITY
$$




USA.gov is the U.S. government's official web portal to all federal, state and local government web resources and services.